This is the latest recevied weather packets stored in our database for station/object N6DZK. If no packets are shown the sender has not sent any weather packets the latest 1 day(s).
| Time | Temp. | Humidity | Pressure | Rain* | Wind** | Luminosity | Snow |
|---|---|---|---|---|---|---|---|
| 1778066414 | 8.89° C | 94% | 1019.3 hPa | 0 mm | - | 0 W/m² | - |
| 1778065809 | 9.44° C | 94% | 1019.3 hPa | 0 mm | - | 0 W/m² | - |
| 1778064597 | 9.44° C | 94% | 1019.3 hPa | 0 mm | - | 0 W/m² | - |
| 1778063993 | 9.44° C | 93% | 1019.5 hPa | 0 mm | - | 0 W/m² | - |
| 1778063386 | 10° C | 93% | 1019.3 hPa | 0 mm | - | 0 W/m² | - |
| 1778062478 | 10° C | 92% | 1019.1 hPa | 0 mm | - | 0 W/m² | - |
| 1778061571 | 10.56° C | 91% | 1019.2 hPa | 0 mm | - | 0 W/m² | - |
| 1778060965 | 10.56° C | 91% | 1019.4 hPa | 0 mm | - | 0 W/m² | - |
| 1778060664 | 11.11° C | 91% | 1019 hPa | 0 mm | - | 0 W/m² | - |
| 1778060059 | 11.11° C | 91% | 1019.3 hPa | 0 mm | - | 0 W/m² | - |
| 1778058849 | 11.11° C | 92% | 1019.4 hPa | 0 mm | - | 0 W/m² | - |
| 1778057636 | 11.11° C | 91% | 1019.2 hPa | 0 mm | - | 0 W/m² | - |
| 1778056726 | 11.67° C | 90% | 1019.1 hPa | 0 mm | - | 0 W/m² | - |
| 1778056424 | 11.67° C | 90% | 1019.2 hPa | 0 mm | - | 0 W/m² | - |
| 1778056121 | 11.67° C | 90% | 1019 hPa | 0 mm | - | 0 W/m² | - |
| 1778055817 | 11.67° C | 90% | 1019.3 hPa | 0 mm | - | 0 W/m² | - |
| 1778055212 | 11.67° C | 89% | 1019.2 hPa | 0 mm | - | 0 W/m² | - |
| 1778054909 | 11.67° C | 89% | 1019.2 hPa | 0 mm | - | 0 W/m² | - |
| 1778054303 | 12.22° C | 88% | 1019.2 hPa | 0 mm | - | 0 W/m² | - |
| 1778052790 | 12.78° C | 86% | 1018.8 hPa | 0 mm | - | 0 W/m² | - |
| 1778052486 | 12.78° C | 85% | 1018.9 hPa | 0 mm | - | 0 W/m² | - |
| 1778052184 | 12.78° C | 85% | 1018.9 hPa | 0 mm | - | 0 W/m² | - |
| 1778051881 | 13.33° C | 85% | 1018.8 hPa | 0 mm | - | 0 W/m² | - |
| 1778051276 | 12.78° C | 86% | 1018.7 hPa | 0 mm | - | 0 W/m² | - |
| 1778050973 | 12.78° C | 86% | 1018.6 hPa | 0 mm | - | 0 W/m² | - |
* Rain latest hour (hover to see other rain measurements)
** Current wind speed in m/s (hover to see current wind gust speed)